User: anonymous   Login
Location: Paris
(48.6709°N, 2.3750°E)
Time: 12:15:03
(UTC+02:00)
Language:

BEESAT 2 - Orbit

View from above orbital plane
View from above orbital plane
View from above satellite
View from above satellite

Ground track
Ground track

The orbit data is extracted from the following two-line orbital elements,

1 39136U 13015G   22180.78460965  .00004260  00000-0  18783-3 0  9992
2 39136  64.8756  65.9796 0017122 296.2202  63.7166 15.23091749507796
Epoch (UTC): 29 June 2022 18:49:50
Eccentricity: 0.0017122
inclination: 64.8756°
perigee height: 485 km
apogee height: 508 km
right ascension of ascending node: 65.9796°
argument of perigee: 296.2202°
revolutions per day: 15.23091749
mean anomaly at epoch: 63.7166°
orbit number at epoch: 50779

The dashed part of the orbit path shows where the satellite is in the earth's shadow,  

DLR